[[{"header":{"parameterUnit":"m.s-1","parameterCategory":1,"la1":30.2991,"la2":30.254,"lo1":-89.0895,"lo2":-89.0444,"dy":0.0017,"dx":0.0017,"nx":28,"ny":28,"refTime":"2025-02-27T03:00:00:Z","depth":0,"parameterNumber":2,"parameterNumberName":"U-component_of_WINDS"},"data":[0,0,0,0,0,0,0,0,0,0,0,0,0,0,0,0,0,0,0,0,0,0,0,0,0,0,0,0,0,0,0,0,0,0,0,0,0,0,0,0,0,0,0,0,0,0,0,0,0,0,0,0,0,0,0,0,0,0,-0.1285,-0.1285,0,-0.1211,-0.121,-0.1209,-0.1168,-0.1168,-0.1168,-0.1168,-0.1089,-0.1087,-0.1085,0,0,0,0,0,0,0,0,0,0,0,0,0,-0.1391,-0.1389,-0.1285,-0.1285,-0.1284,-0.1211,-0.121,-0.1209,-0.1168,-0.1168,-0.1168,-0.1167,-0.109,-0.1087,-0.1085,0,0,0,0,0,0,0,0,0,0,0,0,0,-0.1334,-0.1389,-0.1286,-0.1254,-0.1251,-0.1211,-0.121,-0.1209,-0.1168,-0.1168,-0.1168,-0.1167,-0.109,-0.1087,-0.1085,-0.1069,0,0,-0.1075,-0.1074,0,0,0,0,0,0,0,0,-0.1337,-0.133,-0.126,-0.1256,-0.1252,-0.1198,-0.1218,-0.1162,-0.1168,-0.1199,-0.1168,-0.1167,-0.1125,-0.1119,-0.1106,-0.1066,-0.1062,-0.1075,-0.1073,-0.1072,-0.1071,0,0,0,0,0,0,0,-0.1341,-0.1333,-0.1256,-0.1259,-0.1254,-0.1244,-0.1235,-0.1207,-0.1164,-0.1197,-0.1193,-0.1185,-0.1123,-0.1109,-0.1104,-0.1061,-0.1075,-0.1073,-0.1071,-0.107,-0.1005,-0.1005,0,0,0,0,0,0,-0.135,-0.1336,-0.1258,-0.1254,-0.1295,-0.1242,-0.1233,-0.1216,-0.1164,-0.1156,-0.1185,-0.1184,-0.1114,-0.1107,-0.1101,-0.1079,-0.1072,-0.1069,-0.1068,-0.1005,-0.1005,-0.1005,0,0,0,0,0,0,-0.1353,-0.1344,-0.1261,-0.1294,-0.1283,-0.124,-0.1222,-0.1215,-0.12,-0.1156,-0.1148,-0.1179,-0.1114,-0.1105,-0.1078,-0.1076,-0.1068,-0.1065,-0.1005,-0.1005,-0.1005,-0.1036,0,0,0,0,0,0,-0.1356,-0.1345,-0.1339,-0.1294,-0.1281,-0.124,-0.1222,-0.1213,-0.1195,-0.1192,-0.1147,-0.114,-0.1113,-0.1082,-0.1075,-0.1072,-0.1063,-0.1004,-0.1005,-0.1005,-0.1035,-0.1038,-0.104,0,0,0,0,0,-0.136,-0.135,-0.1339,-0.133,-0.1273,-0.124,-0.1232,-0.1202,-0.1195,-0.1189,-0.1161,-0.1141,-0.1078,-0.108,-0.1071,-0.1067,-0.1004,-0.1005,-0.1005,-0.1034,-0.1037,-0.104,0,0,0,0,0,0,-0.1395,-0.1344,-0.133,-0.1306,-0.1278,-0.1233,-0.1224,-0.1206,-0.1178,-0.1176,-0.1139,-0.1129,-0.1105,-0.1084,-0.1087,-0.105,-0.1039,-0.1037,-0.1065,-0.1067,-0.1069,-0.1074,-0.106,0,0,0,0,0,-0.14,-0.1378,-0.1334,-0.1317,-0.1304,-0.1266,-0.1251,-0.123,-0.1199,-0.1186,-0.1156,-0.1126,-0.1099,-0.1082,-0.1055,-0.1032,-0.1022,-0.1025,-0.1028,-0.103,-0.1028,-0.1015,-0.1015,-0.1005,-0.1005,-0.1005,0,0,-0.141,-0.1379,-0.1367,-0.1324,-0.1299,-0.1276,-0.1256,-0.1233,-0.1216,-0.1182,-0.1155,-0.1132,-0.1095,-0.1071,-0.1058,-0.1052,-0.1029,-0.103,-0.1032,-0.1029,-0.1015,-0.1016,-0.1017,-0.1005,-0.1005,-0.1005,0,0,-0.1416,-0.1391,-0.1374,-0.135,-0.1314,-0.1289,-0.1285,-0.1243,-0.1227,-0.1199,-0.1173,-0.1152,-0.1106,-0.1082,-0.1063,-0.1062,-0.1042,-0.1054,-0.1064,-0.1052,-0.1052,-0.1053,-0.1052,-0.1052,-0.1053,-0.1053,-0.1053,0,-0.1433,-0.1398,-0.1367,-0.1346,-0.1327,-0.1297,-0.1279,-0.1257,-0.1214,-0.1201,-0.1195,-0.1137,-0.1111,-0.108,-0.108,-0.1066,-0.106,-0.1058,-0.1055,-0.1055,-0.1055,-0.1053,-0.1053,-0.1054,-0.1054,-0.1054,-0.1054,0,-0.142,-0.1397,-0.1387,-0.1347,-0.1327,-0.1308,-0.1273,-0.1257,-0.1239,-0.1215,-0.1186,-0.1154,-0.112,-0.1111,-0.1092,-0.1077,-0.1074,-0.1062,-0.105,-0.1058,-0.1056,-0.1055,-0.1057,-0.1056,-0.1056,-0.1055,0,0,-0.1446,-0.1389,-0.1386,-0.1367,-0.1325,-0.1306,-0.1285,-0.1252,-0.1239,-0.121,-0.1191,-0.1154,-0.1143,-0.1122,-0.11,-0.1089,-0.1089,-0.1078,-0.1076,-0.108,-0.107,-0.1079,-0.1079,-0.1077,-0.1077,-0.1077,-0.1073,0,-0.1445,-0.1407,-0.1379,-0.1351,-0.1328,-0.13,-0.1282,-0.1254,-0.1231,-0.1208,-0.1183,-0.1157,-0.1144,-0.1132,-0.112,-0.1092,-0.1086,-0.1092,-0.1058,-0.1057,-0.1067,-0.1078,-0.1087,-0.1085,-0.1072,-0.1072,-0.1072,0,-0.1439,-0.1412,-0.1382,-0.1343,-0.1332,-0.1317,-0.1284,-0.1263,-0.1231,-0.1215,-0.1193,-0.1171,-0.1147,-0.1139,-0.1105,-0.111,-0.1095,-0.1079,-0.1078,-0.1073,-0.1064,-0.1072,-0.1084,-0.1083,-0.107,-0.107,-0.107,0,-0.146,-0.1416,-0.1392,-0.1377,-0.1331,-0.132,-0.13,-0.1268,-0.125,-0.1222,-0.121,-0.118,-0.1163,-0.1139,-0.111,-0.1106,-0.1079,-0.1068,-0.1065,-0.1066,-0.1059,-0.106,-0.1068,-0.1051,-0.1051,-0.1051,-0.1051,0,-0.1462,-0.1445,-0.1401,-0.1386,-0.1366,-0.1334,-0.1315,-0.1292,-0.1264,-0.1244,-0.1218,-0.12,-0.1162,-0.1139,-0.1116,-0.1091,-0.1084,-0.107,-0.1064,-0.1072,-0.1074,-0.1061,-0.106,-0.1051,-0.1051,-0.1051,-0.1051,0,-0.1481,-0.1451,-0.1423,-0.1382,-0.1371,-0.1358,-0.1322,-0.1307,-0.1283,-0.1259,-0.1251,-0.1214,-0.1185,-0.1154,-0.1115,-0.1099,-0.1076,-0.1068,-0.1087,-0.1084,-0.1082,-0.1082,-0.1081,-0.1079,-0.1065,-0.1065,-0.1065,0,-0.1484,-0.147,-0.1427,-0.1412,-0.1393,-0.137,-0.1352,-0.132,-0.1302,-0.1265,-0.1254,-0.1224,-0.1198,-0.1155,-0.1124,-0.1094,-0.1084,-0.1086,-0.1079,-0.1088,-0.1083,-0.1084,-0.1082,-0.1087,-0.1087,-0.1088,-0.1088,0,-0.1492,-0.1478,-0.1453,-0.1423,-0.1403,-0.1378,-0.1352,-0.1341,-0.1304,-0.1285,-0.1257,-0.1237,-0.1198,-0.1168,-0.1135,-0.1114,-0.1094,-0.1091,-0.1088,-0.1095,-0.1107,-0.11,-0.1091,-0.109,-0.109,-0.109,-0.109,-0.109,-0.1502,-0.1488,-0.1456,-0.143,-0.1407,-0.1383,-0.1367,-0.1341,-0.1317,-0.1283,-0.1266,-0.1237,-0.1206,-0.1159,-0.1139,-0.1115,-0.1109,-0.1106,-0.1104,-0.1104,-0.1106,-0.1112,-0.1109,-0.1109,-0.1109,-0.1109,-0.1109,0,-0.1508,-0.1486,-0.1462,-0.1427,-0.1406,-0.1391,-0.1361,-0.1344,-0.132,-0.1292,-0.1268,-0.1235,-0.1206,-0.1174,-0.1143,-0.1131,-0.1121,-0.1124,-0.1124,-0.1119,-0.1114,-0.1118,-0.1132,-0.1132,-0.1132,-0.1132,-0.1132,-0.1132,-0.1509,-0.1485,-0.1467,-0.1431,-0.1409,-0.1382,-0.1366,-0.1344,-0.1322,-0.1286,-0.1263,-0.1242,-0.1212,-0.1179,-0.1152,-0.1143,-0.1133,-0.1138,-0.1126,-0.1121,-0.1119,-0.1118,-0.1122,-0.1136,-0.1136,-0.1133,-0.1133,-0.1133]},{"header":{"parameterUnit":"m.s-1","parameterCategory":1,"la1":30.2991,"la2":30.254,"lo1":-89.0895,"lo2":-89.0444,"dy":0.0017,"dx":0.0017,"nx":28,"ny":28,"refTime":"2025-02-27T03:00:00:Z","depth":0,"parameterNumber":3,"parameterNumberName":"V-component_of_WINDS"},"data":[0,0,0,0,0,0,0,0,0,0,0,0,0,0,0,0,0,0,0,0,0,0,0,0,0,0,0,0,0,0,0,0,0,0,0,0,0,0,0,0,0,0,0,0,0,0,0,0,0,0,0,0,0,0,0,0,0,0,2.9184,2.9184,0,2.9157,2.9156,2.9156,2.9191,2.9192,2.9194,2.9195,2.9163,2.9161,2.9159,0,0,0,0,0,0,0,0,0,0,0,0,0,2.9267,2.9265,2.9184,2.9184,2.9184,2.9157,2.9156,2.9156,2.9191,2.9192,2.9194,2.9195,2.9163,2.9161,2.9158,0,0,0,0,0,0,0,0,0,0,0,0,0,2.9234,2.9265,2.9185,2.9198,2.9199,2.9157,2.9156,2.9156,2.919,2.9192,2.9194,2.9196,2.9164,2.9161,2.9158,2.91,0,0,2.9149,2.9147,0,0,0,0,0,0,0,0,2.9236,2.9231,2.9196,2.9197,2.9198,2.9179,2.9173,2.9137,2.919,2.9194,2.9195,2.9197,2.9166,2.9163,2.9154,2.9099,2.9097,2.9148,2.9146,2.9145,2.9144,0,0,0,0,0,0,0,2.9238,2.9232,2.9173,2.9196,2.9197,2.9205,2.9203,2.9167,2.9169,2.9193,2.9196,2.9192,2.9167,2.9156,2.9153,2.9097,2.9148,2.9146,2.9144,2.9142,2.8996,2.8994,0,0,0,0,0,0,2.9239,2.9234,2.9174,2.9173,2.9222,2.9202,2.9199,2.9183,2.917,2.917,2.9191,2.9194,2.9161,2.9157,2.9152,2.9086,2.9145,2.9142,2.914,2.8998,2.8995,2.8993,0,0,0,0,0,0,2.9241,2.9233,2.9175,2.9204,2.9197,2.9199,2.918,2.9182,2.9171,2.9168,2.9168,2.9179,2.9162,2.9156,2.9114,2.9085,2.9141,2.9138,2.9,2.8997,2.8994,2.8951,0,0,0,0,0,0,2.9243,2.9234,2.9212,2.9203,2.9196,2.9138,2.9179,2.918,2.9166,2.917,2.9157,2.9157,2.9163,2.9118,2.9111,2.9082,2.9136,2.9003,2.8999,2.8995,2.8955,2.8946,2.8939,0,0,0,0,0,2.9246,2.9199,2.9211,2.9203,2.9168,2.9136,2.9131,2.9141,2.9164,2.9142,2.914,2.9157,2.9089,2.9113,2.9105,2.9075,2.9005,2.9,2.8996,2.8958,2.8948,2.894,0,0,0,0,0,0,2.9202,2.9198,2.9211,2.916,2.9148,2.9142,2.9114,2.9129,2.911,2.9114,2.9125,2.9122,2.9077,2.9072,2.9099,2.902,2.9051,2.9044,2.9025,2.9015,2.9008,2.9011,2.9133,0,0,0,0,0,2.9187,2.9162,2.9159,2.9115,2.9109,2.9112,2.9099,2.9107,2.9095,2.909,2.9085,2.9071,2.9047,2.9031,2.9008,2.8954,2.8953,2.8929,2.8922,2.8915,2.891,2.8883,2.8874,2.8978,2.8978,2.8978,0,0,2.9155,2.9149,2.9132,2.9106,2.9098,2.9072,2.9108,2.9078,2.9058,2.9084,2.9045,2.9041,2.9027,2.8979,2.8957,2.8973,2.8881,2.891,2.8905,2.8902,2.8878,2.8868,2.8859,2.8975,2.8976,2.8976,0,0,2.9083,2.9076,2.9039,2.9031,2.902,2.9023,2.9014,2.9006,2.9005,2.8966,2.8986,2.8963,2.892,2.8911,2.89,2.8828,2.8844,2.882,2.878,2.8754,2.8746,2.8739,2.8715,2.8706,2.8814,2.8814,2.8814,0,2.9044,2.9006,2.9018,2.8988,2.8977,2.9001,2.8965,2.8956,2.8937,2.8928,2.8946,2.8896,2.8888,2.8839,2.8822,2.8812,2.8803,2.8822,2.8746,2.8739,2.8733,2.871,2.8701,2.8812,2.8812,2.8812,2.8812,0,2.896,2.8933,2.8905,2.8889,2.8874,2.884,2.8848,2.8832,2.8842,2.8844,2.8804,2.8796,2.8774,2.8763,2.8771,2.8716,2.8726,2.8745,2.8777,2.872,2.8699,2.869,2.8808,2.8809,2.8809,2.881,0,0,2.8858,2.8852,2.8841,2.8835,2.8825,2.8805,2.8773,2.8753,2.874,2.8726,2.87,2.8665,2.8684,2.8672,2.868,2.8657,2.8603,2.8679,2.8679,2.8666,2.8544,2.8531,2.852,2.8613,2.8612,2.861,2.8546,0,2.8788,2.8735,2.8747,2.8694,2.8671,2.8696,2.8668,2.8659,2.8661,2.8641,2.8641,2.8618,2.8642,2.8636,2.8614,2.8614,2.8579,2.8619,2.859,2.8589,2.8594,2.8509,2.8494,2.8433,2.8537,2.8536,2.8535,0,2.8699,2.8685,2.8631,2.8628,2.8618,2.8594,2.8578,2.8558,2.8549,2.8552,2.854,2.8553,2.8522,2.8554,2.8513,2.854,2.8529,2.8527,2.8525,2.8523,2.8559,2.8506,2.8414,2.8405,2.8521,2.8523,2.8523,0,2.8633,2.86,2.8564,2.8558,2.8553,2.8535,2.8532,2.8525,2.8513,2.8499,2.8492,2.8473,2.8463,2.8448,2.8457,2.8479,2.8414,2.8446,2.8416,2.8416,2.8401,2.8402,2.8307,2.8392,2.8392,2.8393,2.8393,0,2.8554,2.852,2.8535,2.8513,2.8477,2.8491,2.8454,2.8454,2.8448,2.8426,2.8445,2.8425,2.8436,2.8416,2.8422,2.8388,2.8383,2.8385,2.8387,2.8384,2.8384,2.8377,2.8382,2.839,2.8391,2.8391,2.8392,0,2.8474,2.8482,2.8445,2.8445,2.8444,2.8417,2.8416,2.8396,2.84,2.8373,2.8367,2.8372,2.835,2.8357,2.8332,2.8337,2.8294,2.8301,2.8298,2.83,2.827,2.8273,2.8168,2.8156,2.8248,2.8247,2.8246,0,2.8423,2.8399,2.8396,2.8385,2.8381,2.836,2.835,2.8363,2.835,2.834,2.8321,2.8301,2.8286,2.825,2.8251,2.8233,2.8241,2.8205,2.8238,2.8237,2.8242,2.8244,2.8243,2.8199,2.8198,2.8197,2.8196,0,2.8334,2.834,2.8324,2.831,2.8297,2.8286,2.8277,2.8266,2.8279,2.8264,2.8243,2.8231,2.8208,2.8189,2.8173,2.817,2.8185,2.8186,2.8179,2.8176,2.8176,2.8177,2.8281,2.8189,2.8189,2.819,2.819,2.8191,2.8268,2.8249,2.8245,2.8227,2.8222,2.8214,2.8196,2.8199,2.8182,2.8166,2.8174,2.815,2.8144,2.8125,2.8119,2.8101,2.8114,2.8103,2.81,2.8097,2.8094,2.8178,2.8097,2.8098,2.8098,2.8098,2.8098,0,2.8182,2.8181,2.8165,2.8153,2.8139,2.8157,2.8149,2.8136,2.8115,2.8108,2.8094,2.8071,2.8053,2.8054,2.8038,2.8023,2.803,2.8018,2.802,2.8019,2.8082,2.8091,2.8013,2.8013,2.8013,2.8013,2.8013,2.8013,2.8135,2.8104,2.811,2.8077,2.8076,2.8055,2.8049,2.8041,2.8037,2.8011,2.7997,2.7998,2.7995,2.7979,2.7963,2.7964,2.7957,2.7943,2.7947,2.8006,2.8014,2.8022,2.8031,2.7941,2.7941,2.7886,2.7885,2.7885]}]]